Altus, OK

5:54 AM CDT on October 01, 2016 (GMT -0500)
Altus Municipal

Weather History for KAXS - September, 2014

Change the Weather History Date:

Friday, September 5, 2014

  Actual Average (KLTS) Record (KLTS)
Temperature  
Mean Temperature 82 °F -  
Max Temperature 97 °F 89 °F 107 °F (1998)
Min Temperature 67 °F 65 °F 55 °F (2010)
Cooling Degree Days 18    
Growing Degree Days 32 (Base 50)    
Moisture  
Dew Point 62 °F    
Average Humidity 49    
Maximum Humidity 78    
Minimum Humidity 28    
Precipitation  
Precipitation 0.02 in - - ()
Sea Level Pressure  
Sea Level Pressure 30.07 in    
Wind  
Wind Speed 10 mph (SSE)    
Max Wind Speed 25 mph    
Max Gust Speed 34 mph    
Visibility 10 miles    
Events Rain    
Averages and records for this station are not official NWS values.
T = Trace of Precipitation, MM = Missing Value Source: NWS Daily Summary

Daily Weather History Graph

Daily Weather History Graph

Search for Another Location

Airport or City:

Trip Planner

Search our weather history database for the weather conditions in past years. The results will help you decide how hot, cold, wet, or windy it might be!

Date:

Astronomy

Sep. 05, 2014 Rise Set
Actual Time 7:13 AM CDT 7:58 PM CDT
Civil Twilight 6:47 AM CDT 8:23 PM CDT
Nautical Twilight 6:17 AM CDT 8:53 PM CDT
Astronomical Twilight 5:46 AM CDT 9:24 PM CDT
Moon 5:22 PM CDT (9/5) 3:15 AM CDT (9/5)
Length of Visible Light 13h 36m
Length of Day
12h 44m
Waxing Gibbous, 84% of the Moon is Illuminated
Sep 5
Waxing Gibbous
Sep 8
Full
Sep 15
Last Quarter
Sep 24
New
Oct 1
First Quarter

Hourly Weather History & Observations

Time (CDT) Temp. Heat Index Dew Point Humidity Pressure Visibility Wind Dir Wind Speed Gust Speed Precip Events Conditions
12:15 AM 84.6 °F 84.8 °F 61.2 °F 45% 30.01 in 10.0 mi South 11.5 mph - N/A   Clear
12:35 AM 84.7 °F 85.0 °F 61.3 °F 45% 30.01 in 10.0 mi South 10.4 mph - N/A   Clear
12:55 AM 84.2 °F 84.8 °F 61.7 °F 47% 30.02 in 10.0 mi SSE 12.7 mph 16.1 mph N/A   Clear
1:15 AM 81.9 °F 82.8 °F 62.2 °F 51% 30.02 in 10.0 mi SSE 10.4 mph - N/A   Clear
1:35 AM 82.8 °F 83.6 °F 62.4 °F 50% 30.03 in 10.0 mi SSE 11.5 mph - N/A   Clear
1:55 AM 81.9 °F 82.9 °F 62.8 °F 52% 30.03 in 10.0 mi South 11.5 mph - N/A   Clear
2:15 AM 82.8 °F 84.0 °F 63.5 °F 52% 30.03 in 10.0 mi South 11.5 mph 17.3 mph N/A   Clear
2:35 AM 82.4 °F 83.7 °F 63.7 °F 53% 30.03 in 10.0 mi South 10.4 mph - N/A   Clear
2:55 AM 82.4 °F 83.7 °F 63.9 °F 53% 30.04 in 10.0 mi South 12.7 mph - N/A   Clear
3:15 AM 81.9 °F 83.4 °F 64.4 °F 55% 30.04 in 10.0 mi South 9.2 mph - N/A   Clear
3:35 AM 81.5 °F 83.1 °F 64.4 °F 56% 30.04 in 10.0 mi South 9.2 mph - N/A   Clear
3:55 AM 80.8 °F 82.4 °F 64.4 °F 57% 30.04 in 10.0 mi South 8.1 mph - N/A   Clear
4:15 AM 79.9 °F - 64.6 °F 59% 30.04 in 10.0 mi South 9.2 mph - N/A   Clear
4:35 AM 79.0 °F - 64.6 °F 61% 30.05 in 10.0 mi SSE 9.2 mph - N/A   Clear
4:55 AM 77.9 °F - 64.6 °F 63% 30.06 in 10.0 mi SSE 8.1 mph - N/A   Clear
5:15 AM 78.4 °F - 64.6 °F 62% 30.06 in 10.0 mi South 8.1 mph - N/A   Clear
5:35 AM 78.3 °F - 64.6 °F 63% 30.06 in 10.0 mi SSE 8.1 mph - N/A   Clear
5:55 AM 77.9 °F - 64.4 °F 63% 30.07 in 10.0 mi South 8.1 mph - N/A   Clear
6:15 AM 77.7 °F - 64.2 °F 63% 30.07 in 10.0 mi South 6.9 mph - N/A   Clear
6:35 AM 77.0 °F - 64.0 °F 64% 30.08 in 10.0 mi South 9.2 mph - N/A   Clear
6:55 AM 76.6 °F - 64.0 °F 65% 30.09 in 10.0 mi South 5.8 mph - N/A   Clear
7:15 AM 75.2 °F - 64.2 °F 69% 30.09 in 10.0 mi SSE 5.8 mph - N/A   Clear
7:35 AM 74.3 °F - 64.4 °F 71% 30.10 in 10.0 mi SSE 4.6 mph - N/A   Clear
7:55 AM 75.4 °F - 64.4 °F 69% 30.11 in 10.0 mi SE 5.8 mph - N/A   Clear
8:15 AM 77.0 °F - 64.8 °F 66% 30.11 in 10.0 mi SSE 5.8 mph - N/A   Clear
8:35 AM 79.0 °F - 64.0 °F 60% 30.12 in 10.0 mi South 9.2 mph - N/A   Clear
8:55 AM 79.2 °F - 64.6 °F 61% 30.12 in 10.0 mi SSW 10.4 mph - N/A   Clear
9:15 AM 79.9 °F - 65.3 °F 61% 30.13 in 10.0 mi SSW 9.2 mph - N/A   Clear
9:35 AM 81.7 °F 83.6 °F 65.5 °F 58% 30.12 in 10.0 mi SW 13.8 mph - N/A   Clear
9:55 AM 83.5 °F 85.5 °F 66.0 °F 55% 30.12 in 10.0 mi SSW 12.7 mph - N/A   Clear
10:15 AM 84.7 °F 86.8 °F 66.0 °F 53% 30.13 in 10.0 mi SW 10.4 mph - N/A   Clear
10:35 AM 85.8 °F 87.9 °F 65.7 °F 51% 30.13 in 10.0 mi SSW 9.2 mph - N/A   Clear
11:15 AM 87.1 °F 88.6 °F 64.8 °F 47% 30.13 in 10.0 mi SW 3.5 mph - N/A   Clear
11:35 AM 88.5 °F 90.1 °F 64.6 °F 45% 30.12 in 10.0 mi WSW 6.9 mph - N/A   Clear
11:55 AM 88.5 °F 90.1 °F 64.6 °F 45% 30.12 in 10.0 mi South 6.9 mph - N/A   Clear
12:15 PM 89.6 °F 90.8 °F 63.5 °F 42% 30.11 in 10.0 mi Calm Calm - N/A   Scattered Clouds
12:35 PM 91.0 °F 91.9 °F 63.1 °F 39% 30.11 in 10.0 mi South 6.9 mph - N/A   Clear
12:55 PM 91.2 °F 92.5 °F 63.7 °F 40% 30.10 in 10.0 mi Calm Calm - N/A   Clear
1:15 PM 91.0 °F 91.5 °F 62.4 °F 38% 30.10 in 10.0 mi SSE 5.8 mph - N/A   Clear
1:35 PM 91.4 °F 92.1 °F 62.8 °F 38% 30.09 in 10.0 mi SE 6.9 mph - N/A   Clear
1:55 PM 93.0 °F 93.0 °F 61.0 °F 34% 30.08 in 10.0 mi South 6.9 mph - N/A   Clear
2:15 PM 93.4 °F 93.2 °F 59.9 °F 33% 30.08 in 10.0 mi Calm Calm - N/A   Clear
2:35 PM 93.7 °F 93.0 °F 59.2 °F 31% 30.07 in 10.0 mi SSW 4.6 mph 16.1 mph N/A   Clear
2:55 PM 93.6 °F 92.7 °F 58.6 °F 31% 30.06 in 10.0 mi SSW 3.5 mph - N/A   Clear
3:15 PM 95.7 °F 95.1 °F 59.2 °F 29% 30.05 in 10.0 mi SE 9.2 mph - N/A   Clear
3:35 PM 96.1 °F 95.6 °F 59.4 °F 29% 30.04 in 10.0 mi SSE 11.5 mph 16.1 mph N/A   Clear
3:55 PM 95.5 °F 94.4 °F 57.6 °F 28% 30.03 in 10.0 mi South 12.7 mph 20.7 mph N/A   Clear
4:15 PM 93.0 °F 92.3 °F 58.8 °F 32% 30.03 in 10.0 mi SE 9.2 mph - N/A   Clear
4:35 PM 92.8 °F 92.1 °F 59.0 °F 32% 30.02 in 10.0 mi SE 8.1 mph - N/A   Clear
4:55 PM 93.2 °F 92.2 °F 58.3 °F 31% 30.02 in 10.0 mi SSE 8.1 mph - N/A   Clear
5:15 PM 94.8 °F 94.2 °F 59.2 °F 30% 30.01 in 10.0 mi SSE 5.8 mph 16.1 mph N/A   Clear
5:35 PM 93.7 °F 92.6 °F 58.3 °F 30% 30.00 in 10.0 mi South 5.8 mph - N/A   Clear
5:55 PM 93.6 °F 91.8 °F 56.3 °F 28% 30.00 in 10.0 mi SE 8.1 mph - N/A   Clear
6:15 PM 94.8 °F 93.4 °F 57.0 °F 28% 30.00 in 10.0 mi SSE 11.5 mph - N/A   Clear
6:35 PM 94.5 °F 93.3 °F 57.7 °F 29% 30.00 in 10.0 mi SE 8.1 mph - N/A   Clear
6:55 PM 93.2 °F 91.9 °F 57.7 °F 30% 30.01 in 10.0 mi SSE 8.1 mph - N/A   Clear
7:15 PM 92.5 °F 91.3 °F 57.7 °F 31% 30.02 in 10.0 mi SSW 5.8 mph - N/A   Clear
7:35 PM 91.4 °F 90.1 °F 57.7 °F 32% 30.02 in 10.0 mi SSW 4.6 mph - N/A   Clear
7:55 PM 90.5 °F 89.3 °F 58.1 °F 33% 30.03 in 10.0 mi Calm Calm - N/A   Clear
8:15 PM 87.6 °F 87.2 °F 60.1 °F 39% 30.04 in 10.0 mi NNW 15.0 mph 21.9 mph N/A   Clear
8:35 PM 82.8 °F 84.0 °F 63.7 °F 52% 30.06 in 10.0 mi North 23.0 mph 28.8 mph N/A   Scattered Clouds
9:15 PM 78.1 °F - 64.8 °F 63% 30.09 in 10.0 mi North 20.7 mph 27.6 mph N/A   Scattered Clouds
9:35 PM 77.0 °F - 64.4 °F 65% 30.11 in 10.0 mi NNE 23.0 mph 26.5 mph N/A   Clear
9:55 PM 76.3 °F - 63.0 °F 63% 30.12 in 10.0 mi NNE 24.2 mph 34.5 mph N/A   Clear
10:15 PM 75.4 °F - 61.3 °F 62% 30.13 in 10.0 mi NNE 23.0 mph 29.9 mph N/A   Clear
10:35 PM 72.9 °F - 62.6 °F 70% 30.15 in 10.0 mi NNE 20.7 mph - N/A Rain Light Rain
10:55 PM 70.9 °F - 63.0 °F 76% 30.15 in 10.0 mi NNE 19.6 mph 29.9 mph N/A Rain Light Rain
11:15 PM 69.1 °F - 61.3 °F 76% 30.15 in 5.0 mi NNE 25.3 mph 33.4 mph 0.02 in Rain Light Rain
11:55 PM 67.5 °F - 60.3 °F 78% 30.14 in 10.0 mi NE 21.9 mph 29.9 mph 0.02 in   Clear